FW7128 Weather Reports


time (UTC)temp
C
wind
direction
speed
KPH
gust
KPH
rain 1hr
cm
rain 24hr
cm
rain mn
cm
humidity
%
barometer
mb
20260906215157 37 91 27.4 41.8 0.00 0.00 0.00 35 1010.8
20260906214655 37 60 14.5 27.4 0.00 0.00 0.00 34 1011.2
20260906214150 36 102 11.3 30.6 0.00 0.00 0.00 35 1010.9
20260906213650 36 105 17.7 37.0 0.00 0.00 0.00 35 1011.0
20260906213144 38 77 12.9 27.4 0.00 0.00 0.00 34 1011.1
20260906212642 38 75 16.1 20.9 0.00 0.00 0.00 34 1011.2
20260906212137 37 72 16.1 24.1 0.00 0.00 0.00 34 1011.0
20260906211637 37 50 11.3 30.6 0.00 0.00 0.00 34 1011.2
20260906211132 36 61 17.7 19.3 0.00 0.00 0.00 35 1011.2
20260906210628 38 60 25.7 33.8 0.00 0.00 0.00 34 1011.2
20260906210122 37 65 20.9 37.0 0.00 0.00 0.00 34 1011.4
20260906205618 37 74 25.7 33.8 0.00 0.00 0.00 34 1011.5
20260906205114 38 105 16.1 22.5 0.00 0.00 0.00 33 1011.6
20260906204613 37 119 16.1 29.0 0.00 0.00 0.00 34 1011.6
20260906204108 37 74 17.7 22.5 0.00 0.00 0.00 34 1011.6
20260906203608 36 118 9.7 17.7 0.00 0.00 0.00 35 1011.8
20260906203102 37 56 8.0 37.0 0.00 0.00 0.00 34 1011.9
20260906202554 38 29 4.8 20.9 0.00 0.00 0.00 32 1012.0
20260906202054 37 106 17.7 25.7 0.00 0.00 0.00 33 1012.1
20260906201554 37 94 30.6 43.5 0.00 0.00 0.00 34 1011.9
20260906201053 36 73 6.4 32.2 0.00 0.00 0.00 33 1011.9
20260906200549 36 81 22.5 38.6 0.00 0.00 0.00 34 1012.3
20260906200045 36 50 8.0 22.5 0.00 0.00 0.00 34 1012.2
20260906195540 37 88 16.1 24.1 0.00 0.00 0.00 33 1012.2
20260906195037 37 56 11.3 35.4 0.00 0.00 0.00 33 1012.1
20260906194532 36 297 0.0 20.9 0.00 0.00 0.00 34 1012.2
20260906194027 37 100 9.7 41.8 0.00 0.00 0.00 33 1012.2
20260906193522 37 100 8.0 20.9 0.00 0.00 0.00 33 1012.4
20260906193017 37 86 14.5 29.0 0.00 0.00 0.00 33 1012.4
20260906192513 36 114 17.7 19.3 0.00 0.00 0.00 34 1012.4
20260906192012 37 73 8.0 37.0 0.00 0.00 0.00 34 1012.6
20260906191507 36 106 9.7 32.2 0.00 0.00 0.00 34 1012.7
20260906191006 37 72 40.2 59.5 0.00 0.00 0.00 34 1012.7
20260906190505 37 65 14.5 51.5 0.00 0.00 0.00 34 1012.8
20260906190000 36 80 20.9 32.2 0.00 0.00 0.00 34 1012.7
20260906185459 36 188 8.0 25.7 0.00 0.00 0.00 35 1012.8
20260906184958 37 113 19.3 49.9 0.00 0.00 0.00 35 1012.8
20260906184454 36 114 11.3 35.4 0.00 0.00 0.00 36 1012.8
20260906183949 36 129 14.5 20.9 0.00 0.00 0.00 35 1013.0
20260906183445 36 116 17.7 30.6 0.00 0.00 0.00 36 1013.2
20260906182940 36 145 9.7 30.6 0.00 0.00 0.00 36 1013.0
20260906182436 37 64 19.3 32.2 0.00 0.00 0.00 35 1013.0
20260906181931 36 106 6.4 33.8 0.00 0.00 0.00 36 1013.5
20260906181427 36 305 4.8 16.1 0.00 0.00 0.00 36 1013.5
20260906180923 35 80 17.7 22.5 0.00 0.00 0.00 38 1013.4
20260906180417 36 183 6.4 30.6 0.00 0.00 0.00 38 1013.5
20260906175915 36 91 16.1 32.2 0.00 0.00 0.00 37 1013.8
20260906175410 35 76 11.3 14.5 0.00 0.00 0.00 40 1013.5
20260906174909 35 54 14.5 17.7 0.00 0.00 0.00 40 1013.6
20260906174408 35 52 20.9 22.5 0.00 0.00 0.00 40 1014.1
20260906173903 35 112 25.7 30.6 0.00 0.00 0.00 40 1013.9
20260906173359 35 109 17.7 22.5 0.00 0.00 0.00 41 1014.2
20260906172858 35 87 4.8 17.7 0.00 0.00 0.00 40 1014.3
20260906172354 35 50 14.5 22.5 0.00 0.00 0.00 40 1014.4
20260906171849 35 28 3.2 14.5 0.00 0.00 0.00 40 1014.3
20260906171344 36 84 14.5 17.7 0.00 0.00 0.00 40 1014.5
20260906170839 35 264 4.8 22.5 0.00 0.00 0.00 40 1014.6
20260906170335 35 87 14.5 27.4 0.00 0.00 0.00 41 1014.5
20260906165832 35 40 9.7 27.4 0.00 0.00 0.00 40 1014.6
20260906165330 35 319 4.8 12.9 0.00 0.00 0.00 42 1014.6
20260906164826 34 62 8.0 14.5 0.00 0.00 0.00 44 1014.6
20260906164325 35 20 9.7 22.5 0.00 0.00 0.00 43 1014.7
20260906163821 35 64 0.0 14.5 0.00 0.00 0.00 42 1014.8
20260906163317 34 296 0.0 11.3 0.00 0.00 0.00 44 1014.8
20260906162814 35 89 14.5 20.9 0.00 0.00 0.00 42 1014.8
20260906162314 35 82 8.0 24.1 0.00 0.00 0.00 42 1014.9
20260906161809 35 41 0.0 14.5 0.00 0.00 0.00 42 1014.7
20260906161308 35 285 4.8 9.7 0.00 0.00 0.00 42 1014.8
20260906160807 34 280 0.0 8.0 0.00 0.00 0.00 44 1014.9
20260906160302 33 34 9.7 9.7 0.00 0.00 0.00 43 1015.0
20260906155759 33 89 0.0 9.7 0.00 0.00 0.00 44 1014.9
20260906155254 34 234 9.7 11.3 0.00 0.00 0.00 44 1014.7
20260906154749 33 258 4.8 8.0 0.00 0.00 0.00 45 1014.9
20260906154244 33 214 4.8 6.4 0.00 0.00 0.00 47 1014.9
20260906153743 32 267 6.4 8.0 0.00 0.00 0.00 48 1014.7
20260906153237 32 240 0.0 11.3 0.00 0.00 0.00 48 1014.7
20260906152733 32 192 4.8 8.0 0.00 0.00 0.00 49 1014.5
20260906152227 32 138 6.4 11.3 0.00 0.00 0.00 50 1014.7
20260906151727 32 280 0.0 8.0 0.00 0.00 0.00 50 1014.5
20260906151222 33 233 8.0 8.0 0.00 0.00 0.00 48 1014.5
20260906150718 32 157 0.0 4.8 0.00 0.00 0.00 49 1014.3
20260906150213 31 288 4.8 8.0 0.00 0.00 0.00 51 1014.6
20260906145712 31 190 3.2 6.4 0.00 0.00 0.00 51 1014.7
20260906145211 31 101 8.0 11.3 0.00 0.00 0.00 52 1014.4
20260906144706 30 167 4.8 9.7 0.00 0.00 0.00 55 1014.3
20260906144201 30 110 3.2 9.7 0.00 0.00 0.00 55 1014.4
20260906143700 30 235 3.2 8.0 0.00 0.00 0.00 54 1014.5
20260906143158 29 142 0.0 8.0 0.00 0.00 0.00 56 1014.8
20260906142652 30 143 0.0 9.7 0.00 0.00 0.00 57 1014.9
20260906142147 30 106 8.0 9.7 0.00 0.00 0.00 58 1014.5
20260906141646 30 47 6.4 11.3 0.00 0.00 0.00 58 1014.3
20260906141141 29 121 0.0 12.9 0.00 0.00 0.00 59 1014.5
20260906140640 28 112 11.3 11.3 0.00 0.00 0.00 61 1014.4
20260906140135 28 115 8.0 11.3 0.00 0.00 0.00 60 1014.7
20260906135632 28 80 0.0 8.0 0.00 0.00 0.00 61 1014.7
20260906135128 28 112 8.0 12.9 0.00 0.00 0.00 62 1014.6
20260906134624 28 133 6.4 11.3 0.00 0.00 0.00 63 1014.5
20260906134119 28 89 9.7 12.9 0.00 0.00 0.00 63 1014.6
20260906133615 28 80 0.0 11.3 0.00 0.00 0.00 64 1014.5
20260906133115 27 84 3.2 9.7 0.00 0.00 0.00 64 1014.5
20260906132610 27 75 4.8 9.7 0.00 0.00 0.00 64 1014.5
20260906132106 27 120 6.4 12.9 0.00 0.00 0.00 66 1014.4
20260906131601 27 101 6.4 11.3 0.00 0.00 0.00 66 1014.3
20260906131056 27 83 4.8 8.0 0.00 0.00 0.00 67 1014.2
20260906130556 27 60 4.8 9.7 0.00 0.00 0.00 67 1014.2
20260906130051 27 128 6.4 8.0 0.00 0.00 0.00 67 1013.7
20260906125548 26 117 0.0 6.4 0.00 0.00 0.00 68 1013.7
20260906125043 26 110 3.2 8.0 0.00 0.00 0.00 68 1013.8
20260906124538 26 108 3.2 8.0 0.00 0.00 0.00 69 1013.8
20260906124033 26 89 0.0 8.0 0.00 0.00 0.00 70 1013.8
20260906123532 26 115 6.4 6.4 0.00 0.00 0.00 71 1013.6
20260906123028 25 103 8.0 8.0 0.00 0.00 0.00 72 1013.6
20260906122527 25 98 3.2 6.4 0.00 0.00 0.00 72 1013.5
20260906122023 25 105 4.8 8.0 0.00 0.00 0.00 72 1013.5
20260906121519 25 103 0.0 4.8 0.00 0.00 0.00 72 1013.4
20260906121015 25 147 0.0 0.0 0.00 0.00 0.00 72 1013.2
20260906120510 25 135 3.2 4.8 0.00 0.00 0.00 72 1013.4
20260906120008 25 164 0.0 0.0 0.00 0.00 0.00 72 1013.3
20260906115501 26 114 0.0 4.8 0.00 0.00 0.00 71 1013.3
20260906114956 26 94 3.2 8.0 0.00 0.00 0.00 71 1013.3
20260906114450 26 84 4.8 11.3 0.00 0.00 0.00 70 1013.2
20260906113947 26 109 8.0 9.7 0.00 0.00 0.00 70 1013.2
20260906113445 26 87 8.0 8.0 0.00 0.00 0.00 70 1013.1
20260906112941 26 82 8.0 11.3 0.00 0.00 0.00 70 1013.1
20260906112436 26 76 3.2 8.0 0.00 0.00 0.00 70 1013.1
20260906111932 26 150 0.0 6.4 0.00 0.00 0.00 70 1012.9
20260906111431 26 146 0.0 9.7 0.00 0.00 0.00 70 1013.0
20260906110926 26 117 3.2 8.0 0.00 0.00 0.00 70 1013.0
20260906110421 26 98 6.4 8.0 0.00 0.00 0.00 70 1013.0
20260906105920 26 95 3.2 6.4 0.00 0.00 0.00 70 1013.0
20260906105416 26 129 0.0 0.0 0.00 0.00 0.00 70 1012.8
20260906104912 26 122 0.0 6.4 0.00 0.00 0.00 69 1012.9
20260906104410 26 105 6.4 8.0 0.00 0.00 0.00 69 1012.9
20260906103910 26 103 8.0 8.0 0.00 0.00 0.00 69 1012.8
20260906103408 26 116 4.8 6.4 0.00 0.00 0.00 69 1013.1
20260906102904 26 89 8.0 8.0 0.00 0.00 0.00 68 1012.7
20260906102403 26 105 4.8 6.4 0.00 0.00 0.00 68 1012.8
20260906101858 26 141 0.0 4.8 0.00 0.00 0.00 68 1012.9
20260906101353 26 114 4.8 6.4 0.00 0.00 0.00 67 1012.9
20260906100849 26 94 4.8 8.0 0.00 0.00 0.00 67 1012.7
20260906100348 26 107 4.8 8.0 0.00 0.00 0.00 66 1012.9
20260906095843 27 83 6.4 8.0 0.00 0.00 0.00 66 1012.8
20260906095338 27 177 4.8 4.8 0.00 0.00 0.00 65 1012.7
20260906094838 27 102 4.8 6.4 0.00 0.00 0.00 65 1012.5
20260906094333 27 128 4.8 6.4 0.00 0.00 0.00 65 1012.8
20260906093829 27 72 3.2 6.4 0.00 0.00 0.00 65 1012.6
20260906093325 27 123 9.7 9.7 0.00 0.00 0.00 65 1012.5
20260906092820 27 119 4.8 8.0 0.00 0.00 0.00 64 1012.5
20260906092320 27 136 0.0 8.0 0.00 0.00 0.00 64 1012.5
20260906091815 27 115 0.0 9.7 0.00 0.00 0.00 63 1012.5
20260906091311 27 117 11.3 11.3 0.00 0.00 0.00 63 1012.5
20260906090808 27 103 6.4 8.0 0.00 0.00 0.00 63 1012.5
20260906090306 27 130 0.0 9.7 0.00 0.00 0.00 63 1012.4
20260906085801 27 119 0.0 11.3 0.00 0.00 0.00 63 1012.4
20260906085259 27 69 3.2 8.0 0.00 0.00 0.00 63 1012.4
20260906084754 27 95 0.0 4.8 0.00 0.00 0.00 62 1012.3
20260906084248 27 135 0.0 3.2 0.00 0.00 0.00 62 1012.4
20260906083743 27 119 6.4 9.7 0.00 0.00 0.00 62 1012.2
20260906083239 27 107 11.3 12.9 0.00 0.00 0.00 61 1012.2
20260906082733 27 239 0.0 9.7 0.00 0.00 0.00 61 1012.1
20260906082228 27 100 3.2 12.9 0.00 0.00 0.00 61 1012.3
20260906081725 27 94 9.7 11.3 0.00 0.00 0.00 61 1012.3
20260906081219 27 105 9.7 12.9 0.00 0.00 0.00 60 1012.3
20260906080716 27 119 6.4 11.3 0.00 0.00 0.00 60 1012.3
20260906080212 27 116 6.4 14.5 0.00 0.00 0.00 60 1012.3
20260906075706 28 101 9.7 14.5 0.00 0.00 0.00 59 1012.5
20260906075200 28 98 4.8 11.3 0.00 0.00 0.00 59 1012.4
20260906074655 28 116 6.4 9.7 0.00 0.00 0.00 59 1012.4
20260906074149 28 134 4.8 14.5 0.00 0.00 0.00 58 1012.3
20260906073644 28 132 6.4 9.7 0.00 0.00 0.00 58 1012.2
20260906073140 28 212 6.4 9.7 0.00 0.00 0.00 58 1012.5
20260906072635 28 154 4.8 14.5 0.00 0.00 0.00 58 1012.2
20260906072130 28 161 0.0 6.4 0.00 0.00 0.00 58 1012.4
20260906071626 28 164 6.4 8.0 0.00 0.00 0.00 58 1012.5
20260906071121 28 188 0.0 9.7 0.00 0.00 0.00 57 1012.4
20260906070618 28 177 6.4 8.0 0.00 0.00 0.00 57 1012.4
20260906070113 28 118 3.2 9.7 0.00 0.00 0.00 57 1012.2
20260906065612 28 218 3.2 8.0 0.00 0.00 0.00 57 1012.5
20260906065108 28 172 4.8 12.9 0.00 0.00 0.00 57 1012.3
20260906064604 28 183 4.8 11.3 0.00 0.00 0.00 56 1012.5
20260906064058 28 132 6.4 11.3 0.00 0.00 0.00 56 1012.5
20260906063554 28 103 8.0 9.7 0.00 0.00 0.00 56 1012.8
20260906063049 28 112 8.0 8.0 0.00 0.00 0.00 56 1012.6
20260906062545 28 99 9.7 9.7 0.00 0.00 0.00 56 1012.6
20260906062038 28 103 11.3 14.5 0.00 0.00 0.00 55 1012.6
20260906061535 28 110 4.8 11.3 0.00 0.00 0.00 55 1012.7
20260906061034 29 91 0.0 14.5 0.00 0.00 0.00 55 1012.6
20260906060531 29 99 11.3 16.1 0.00 0.00 0.00 54 1012.7
20260906060028 29 93 12.9 16.1 0.00 0.00 0.00 54 1012.6
20260906055523 29 97 14.5 19.3 0.00 0.00 0.00 53 1012.8
20260906055019 30 110 12.9 17.7 0.00 0.00 0.00 53 1012.9
20260906054519 30 116 14.5 22.5 0.00 0.00 0.00 53 1012.9
20260906054014 30 76 8.0 19.3 0.00 0.00 0.00 52 1012.8
20260906053510 30 126 9.7 14.5 0.00 0.00 0.00 52 1012.6
20260906053005 30 114 8.0 14.5 0.00 0.00 0.00 52 1012.5
20260906052501 30 81 8.0 11.3 0.00 0.00 0.00 52 1012.5
20260906051958 30 114 3.2 11.3 0.00 0.00 0.00 52 1012.3
20260906051453 30 108 6.4 14.5 0.00 0.00 0.00 52 1012.5
20260906050949 30 82 4.8 8.0 0.00 0.00 0.00 52 1012.5
20260906050448 30 114 0.0 8.0 0.00 0.00 0.00 51 1012.6
20260906045948 30 94 8.0 11.3 0.00 0.00 0.00 51 1012.5
20260906045447 30 99 4.8 9.7 0.00 0.00 0.00 51 1012.7
20260906044943 30 121 4.8 11.3 0.00 0.00 0.00 50 1012.9
20260906044437 30 107 6.4 14.5 0.00 0.00 0.00 50 1012.7
20260906043927 30 70 6.4 9.7 0.00 0.00 0.00 50 1012.7
20260906043423 30 89 0.0 8.0 0.00 0.00 0.00 50 1012.6
20260906042919 30 93 0.0 9.7 0.00 0.00 0.00 49 1012.7
20260906042418 30 94 3.2 11.3 0.00 0.00 0.00 49 1012.6
20260906041912 30 70 4.8 12.9 0.00 0.00 0.00 49 1012.7
20260906041403 30 95 14.5 16.1 0.00 0.00 0.00 49 1012.8
20260906040903 31 86 4.8 14.5 0.00 0.00 0.00 48 1012.7
20260906040358 31 100 4.8 11.3 0.00 0.00 0.00 48 1012.9
20260906035853 31 92 9.7 14.5 0.00 0.00 0.00 48 1012.9
20260906035349 31 89 0.0 17.7 0.00 0.00 0.00 47 1012.5
20260906034843 31 104 6.4 8.0 0.00 0.00 0.00 47 1012.5
20260906034338 31 57 6.4 11.3 0.00 0.00 0.00 47 1012.6
20260906033834 31 132 3.2 17.7 0.00 0.00 0.00 46 1012.5
20260906033333 31 92 6.4 17.7 0.00 0.00 0.00 46 1012.7
20260906032830 31 102 8.0 19.3 0.00 0.00 0.00 46 1012.4
20260906032326 31 68 9.7 14.5 0.00 0.00 0.00 46 1012.7
20260906031821 31 59 12.9 27.4 0.00 0.00 0.00 46 1012.5
20260906031316 32 83 14.5 30.6 0.00 0.00 0.00 45 1012.3
20260906030816 32 87 9.7 17.7 0.00 0.00 0.00 45 1012.2
20260906030311 32 66 8.0 20.9 0.00 0.00 0.00 45 1012.3
20260906025811 32 97 17.7 20.9 0.00 0.00 0.00 44 1012.5
20260906025306 32 140 14.5 14.5 0.00 0.00 0.00 44 1012.4
20260906024804 32 68 8.0 20.9 0.00 0.00 0.00 43 1012.2
20260906024303 32 82 6.4 14.5 0.00 0.00 0.00 43 1011.9
20260906023759 32 80 8.0 16.1 0.00 0.00 0.00 43 1012.0
20260906023254 32 109 8.0 16.1 0.00 0.00 0.00 42 1011.8
20260906022750 32 116 8.0 17.7 0.00 0.00 0.00 42 1011.9
20260906022245 33 110 8.0 11.3 0.00 0.00 0.00 42 1011.7
20260906021741 33 132 14.5 19.3 0.00 0.00 0.00 42 1011.5
20260906021234 33 72 6.4 14.5 0.00 0.00 0.00 41 1011.5
20260906020729 33 102 11.3 16.1 0.00 0.00 0.00 41 1011.6
20260906020223 33 56 4.8 16.1 0.00 0.00 0.00 41 1011.4
20260906015718 33 93 11.3 19.3 0.00 0.00 0.00 41 1011.4
20260906015216 33 64 8.0 19.3 0.00 0.00 0.00 41 1011.4
20260906014710 33 54 8.0 19.3 0.00 0.00 0.00 40 1011.3
20260906014206 33 58 12.9 12.9 0.00 0.00 0.00 40 1011.1
20260906013702 34 101 9.7 16.1 0.00 0.00 0.00 40 1011.0
20260906013157 34 84 8.0 22.5 0.00 0.00 0.00 40 1010.9
20260906012657 34 42 12.9 17.7 0.00 0.00 0.00 39 1010.9
20260906012151 34 85 17.7 22.5 0.00 0.00 0.00 39 1010.8
20260906011647 35 103 16.1 22.5 0.00 0.00 0.00 39 1011.0
20260906011142 35 58 12.9 27.4 0.00 0.00 0.00 39 1010.8
20260906010637 35 124 0.0 14.5 0.00 0.00 0.00 39 1010.7
20260906010133 35 78 14.5 29.0 0.00 0.00 0.00 38 1010.8
20260906005632 35 72 14.5 22.5 0.00 0.00 0.00 38 1010.8
20260906005127 35 93 24.1 25.7 0.00 0.00 0.00 38 1010.7
20260906004626 35 86 11.3 27.4 0.00 0.00 0.00 38 1010.8
20260906004121 35 91 8.0 35.4 0.00 0.00 0.00 38 1010.6
20260906003616 35 97 16.1 27.4 0.00 0.00 0.00 37 1010.5
20260906003112 36 126 6.4 19.3 0.00 0.00 0.00 37 1010.5
20260906002607 36 95 6.4 12.9 0.00 0.00 0.00 37 1010.7
20260906002101 36 63 14.5 25.7 0.00 0.00 0.00 37 1010.4
20260906001556 36 107 19.3 40.2 0.00 0.00 0.00 37 1010.5
20260906001051 36 92 9.7 37.0 0.00 0.00 0.00 37 1010.6
20260906000547 36 70 16.1 27.4 0.00 0.00 0.00 37 1010.2
20260906000042 36 80 12.9 27.4 0.00 0.00 0.00 36 1010.4
20260905235541 36 107 25.7 37.0 0.00 0.00 0.00 36 1010.4
20260905235036 36 98 24.1 29.0 0.00 0.00 0.00 36 1010.2
20260905234532 36 86 14.5 29.0 0.00 0.00 0.00 36 1010.4
20260905234027 36 97 19.3 35.4 0.00 0.00 0.00 36 1010.0
20260905233522 36 109 8.0 20.9 0.00 0.00 0.00 35 1010.0
20260905233021 37 93 17.7 25.7 0.00 0.00 0.00 35 1010.1
20260905232517 37 96 17.7 37.0 0.00 0.00 0.00 35 1010.0
20260905232013 37 91 11.3 25.7 0.00 0.00 0.00 35 1010.0
20260905231508 37 88 9.7 24.1 0.00 0.00 0.00 34 1009.8
20260905231004 37 162 12.9 20.9 0.00 0.00 0.00 34 1010.0
20260905230503 37 91 16.1 20.9 0.00 0.00 0.00 34 1009.8
20260905230001 37 91 9.7 19.3 0.00 0.00 0.00 35 1009.8
20260905225456 37 93 27.4 38.6 0.00 0.00 0.00 34 1009.8
20260905224951 37 75 20.9 25.7 0.00 0.00 0.00 34 1010.1
20260905224446 37 81 0.0 14.5 0.00 0.00 0.00 33 1009.9
20260905223945 37 169 8.0 24.1 0.00 0.00 0.00 33 1010.1
20260905223443 37 133 8.0 14.5 0.00 0.00 0.00 34 1010.2
20260905222943 37 178 9.7 24.1 0.00 0.00 0.00 34 1010.1
20260905222438 37 100 9.7 35.4 0.00 0.00 0.00 34 1010.1
20260905221934 37 63 20.9 20.9 0.00 0.00 0.00 34 1009.9
20260905221430 37 105 14.5 27.4 0.00 0.00 0.00 33 1010.4
20260905220926 37 80 20.9 25.7 0.00 0.00 0.00 33 1010.2
20260905220422 36 123 11.3 16.1 0.00 0.00 0.00 34 1010.4
20260905215921 37 55 29.0 32.2 0.00 0.00 0.00 34 1010.5
20260905215417 37 74 14.5 16.1 0.00 0.00 0.00 34 1010.2